Gainesville, FL

6:36 AM EST on January 22, 2018 (GMT -0500)
Gainesville Regional

Weather History for KGNV - February, 2014

Change the Weather History Date:

Tuesday, February 4, 2014

  Actual Average Record
Temperature  
Mean Temperature 70 °F 56 °F  
Max Temperature 82 °F 68 °F 87 °F (1957)
Min Temperature 57 °F 44 °F 18 °F (1917)
Degree Days  
Heating Degree Days 0 10  
Month to date heating degree days 0 40  
Since 1 July heating degree days 715 842  
Cooling Degree Days 5 0  
Month to date cooling degree days 15 0  
Year to date cooling degree days 25 12  
Growing Degree Days 18 (Base 50)    
Moisture  
Dew Point 62 °F    
Average Humidity 79    
Maximum Humidity 100    
Minimum Humidity 58    
Precipitation  
Precipitation 0.00 in 0.11 in 3.22 in (2016)
Month to date precipitation T 0.45  
Year to date precipitation 5.20 3.76  
Snow  
Snow 0.00 in 0.00 in 0.00 in ()
Month to date snowfall 0.0 0.0  
Since 1 July snowfall 0.0 0.0  
Snow Depth 0.00 in    
Sea Level Pressure  
Sea Level Pressure 30.10 in    
Wind  
Wind Speed 3 mph (SE)    
Max Wind Speed 12 mph    
Max Gust Speed 16 mph    
Visibility 3 miles    
Events Fog    
T = Trace of Precipitation, MM = Missing Value Source: NWS Daily Summary

Daily Weather History Graph

Daily Weather History Graph

Search for Another Location

Airport or City:

Trip Planner

Search our weather history database for the weather conditions in past years. The results will help you decide how hot, cold, wet, or windy it might be!

Date:

Astronomy

Feb. 04, 2014 Rise Set
Actual Time 7:16 AM EST 6:09 PM EST
Civil Twilight 6:52 AM EST 6:34 PM EST
Nautical Twilight 6:23 AM EST 7:02 PM EST
Astronomical Twilight 5:55 AM EST 7:30 PM EST
Moon 10:21 AM EST (2/4) 11:32 PM EST (2/4)
Length of Visible Light 11h 42m
Length of Day
10h 52m
Waxing Crescent, 29% of the Moon is Illuminated
Feb 4
Waxing Crescent
Feb 6
First Quarter
Feb 14
Full
Feb 22
Last Quarter
Mar 1
New

Hourly Weather History & Observations

Time (EST) Temp. Heat Index Dew Point Humidity Pressure Visibility Wind Dir Wind Speed Gust Speed Precip Events Conditions
12:16 AM 57.9 °F - 57.9 °F 100% 30.10 in 2.5 mi Calm Calm - N/A   Overcast
12:23 AM 59.0 °F - 59.0 °F 100% 30.10 in 1.8 mi Calm Calm - N/A   Overcast
12:28 AM 60.1 °F - 60.1 °F 100% 30.10 in 0.2 mi Calm Calm - N/A Fog Fog
12:53 AM 61.0 °F - 60.1 °F 97% 30.10 in 0.2 mi Calm Calm - N/A Fog Fog
1:13 AM 60.1 °F - 60.1 °F 100% 30.11 in 1.0 mi Calm Calm - N/A   Overcast
1:18 AM 61.0 °F - 61.0 °F 100% 30.11 in 3.0 mi Calm Calm - N/A   Overcast
1:36 AM 61.0 °F - 61.0 °F 100% 30.11 in 2.0 mi Calm Calm - N/A   Overcast
1:53 AM 61.0 °F - 61.0 °F 100% 30.11 in 1.0 mi ESE 5.8 mph - N/A   Overcast
2:00 AM 61.0 °F - 60.1 °F 97% 30.11 in 0.5 mi ESE 6.9 mph - N/A Fog Fog
2:08 AM 62.1 °F - 62.1 °F 100% 30.11 in 0.2 mi ESE 4.6 mph - N/A Fog Fog
2:53 AM 62.1 °F - 62.1 °F 100% 30.09 in 0.2 mi Calm Calm - N/A Fog Fog
3:15 AM 62.1 °F - 62.1 °F 100% 30.10 in 0.2 mi Calm Calm - N/A Fog Fog
3:29 AM 62.1 °F - 62.1 °F 100% 30.09 in 0.8 mi Calm Calm - N/A   Overcast
3:39 AM 61.0 °F - 61.0 °F 100% 30.09 in 1.5 mi NW 3.5 mph - N/A   Overcast
3:50 AM 60.8 °F - 60.8 °F 100% 30.09 in 0.5 mi NW 3.5 mph - N/A Fog Fog
3:53 AM 61.0 °F - 61.0 °F 100% 30.09 in 0.5 mi NW 3.5 mph - N/A Fog Fog
4:01 AM 61.0 °F - 61.0 °F 100% 30.09 in 2.0 mi Calm Calm - N/A   Overcast
4:17 AM 60.1 °F - 60.1 °F 100% 30.09 in 1.0 mi Calm Calm - N/A   Overcast
4:23 AM 60.1 °F - 60.1 °F 100% 30.09 in 0.8 mi Calm Calm - N/A   Overcast
4:43 AM 60.1 °F - 60.1 °F 100% 30.09 in 0.2 mi Calm Calm - N/A Fog Fog
4:53 AM 60.1 °F - 60.1 °F 100% 30.09 in 0.2 mi Calm Calm - N/A Fog Fog
5:03 AM 59.0 °F - 59.0 °F 100% 30.09 in 0.5 mi NW 3.5 mph - N/A Fog Fog
5:21 AM 59.0 °F - 59.0 °F 100% 30.09 in 0.5 mi Calm Calm - N/A Fog Fog
5:29 AM 59.0 °F - 59.0 °F 100% 30.09 in 0.5 mi Calm Calm - N/A Fog Fog
5:36 AM 59.0 °F - 59.0 °F 100% 30.09 in 0.2 mi Calm Calm - N/A Fog Fog
5:43 AM 59.0 °F - 59.0 °F 100% 30.09 in 0.5 mi Calm Calm - N/A Fog Fog
5:53 AM 59.0 °F - 59.0 °F 100% 30.09 in 0.2 mi Calm Calm - N/A Fog Fog
6:08 AM 59.0 °F - 59.0 °F 100% 30.10 in 0.2 mi Calm Calm - N/A Fog Fog
6:17 AM 59.0 °F - 59.0 °F 100% 30.10 in 0.5 mi Calm Calm - N/A Fog Fog
6:25 AM 59.0 °F - 57.9 °F 96% 30.10 in 0.2 mi Calm Calm - N/A Fog Fog
6:49 AM 57.2 °F - 57.2 °F 100% 30.11 in 0.8 mi Calm Calm - N/A   Overcast
6:53 AM 57.9 °F - 57.9 °F 100% 30.11 in 2.0 mi Calm Calm - N/A   Overcast
6:59 AM 57.0 °F - 57.0 °F 100% 30.11 in 1.5 mi Calm Calm - N/A   Overcast
7:05 AM 57.9 °F - 57.9 °F 100% 30.11 in 0.5 mi Calm Calm - N/A Fog Fog
7:14 AM 57.9 °F - 57.9 °F 100% 30.11 in 0.2 mi Calm Calm - N/A Fog Fog
7:53 AM 59.0 °F - 59.0 °F 100% 30.11 in 0.2 mi Calm Calm - N/A Fog Fog
8:08 AM 60.1 °F - 60.1 °F 100% 30.12 in 0.5 mi Calm Calm - N/A Fog Fog
8:16 AM 60.1 °F - 60.1 °F 100% 30.12 in 2.0 mi Calm Calm - N/A   Overcast
8:42 AM 62.1 °F - 62.1 °F 100% 30.12 in 2.0 mi Calm Calm - N/A   Overcast
8:53 AM 63.0 °F - 63.0 °F 100% 30.13 in 2.0 mi Calm Calm - N/A   Overcast
9:18 AM 62.1 °F - 62.1 °F 100% 30.15 in 0.2 mi ESE 5.8 mph - N/A Fog Fog
9:36 AM 62.1 °F - 62.1 °F 100% 30.15 in 0.5 mi East 4.6 mph - N/A Fog Fog
9:53 AM 63.0 °F - 63.0 °F 100% 30.15 in 0.5 mi ESE 4.6 mph - N/A Fog Fog
10:45 AM 66.0 °F - 66.0 °F 100% 30.15 in 1.5 mi ESE 5.8 mph - N/A   Overcast
10:50 AM 66.2 °F - 66.2 °F 100% 30.15 in 3.0 mi SE 5.8 mph - N/A   Overcast
10:53 AM 66.0 °F - 66.0 °F 100% 30.14 in 3.0 mi SE 5.8 mph - N/A   Overcast
10:55 AM 66.0 °F - 66.0 °F 100% 30.15 in 2.0 mi Variable 4.6 mph - N/A   Overcast
11:23 AM 66.9 °F - 66.0 °F 97% 30.14 in 9.0 mi SE 3.5 mph - N/A   Overcast
11:53 AM 70.0 °F - 66.0 °F 87% 30.12 in 10.0 mi Variable 3.5 mph - N/A   Overcast
12:22 PM 73.0 °F - 66.9 °F 81% 30.11 in 10.0 mi SE 5.8 mph - N/A   Scattered Clouds
12:53 PM 77.0 °F - 66.9 °F 71% 30.08 in 10.0 mi East 3.5 mph - N/A   Clear
1:53 PM 80.1 °F 82.3 °F 66.9 °F 64% 30.05 in 10.0 mi SSE 12.7 mph - N/A   Scattered Clouds
2:53 PM 79.0 °F - 66.0 °F 64% 30.03 in 10.0 mi South 8.1 mph - N/A   Mostly Cloudy
3:53 PM 80.1 °F 81.9 °F 64.9 °F 60% 30.02 in 10.0 mi SSE 6.9 mph - N/A   Mostly Cloudy
4:53 PM 80.1 °F 81.9 °F 64.9 °F 60% 30.02 in 10.0 mi Calm Calm - N/A   Partly Cloudy
5:53 PM 77.0 °F - 64.9 °F 66% 30.02 in 10.0 mi SSE 4.6 mph - N/A   Clear
6:53 PM 71.1 °F - 66.0 °F 84% 30.03 in 10.0 mi Calm Calm - N/A   Scattered Clouds
7:53 PM 70.0 °F - 66.0 °F 87% 30.04 in 10.0 mi West 5.8 mph - N/A   Mostly Cloudy
8:53 PM 72.0 °F - 64.9 °F 78% 30.05 in 10.0 mi Variable 3.5 mph - N/A   Mostly Cloudy
9:53 PM 68.0 °F - 64.0 °F 87% 30.06 in 10.0 mi ESE 6.9 mph - N/A   Partly Cloudy
10:53 PM 66.0 °F - 64.0 °F 93% 30.06 in 10.0 mi Calm Calm - N/A   Overcast
11:53 PM 64.9 °F - 64.0 °F 97% 30.05 in 9.0 mi Calm Calm - N/A   Overcast